DW1039 Weather Reports


Display with metric or nautical units.
time (UTC)temp
F
wind
direction
speed
MPH
gust
MPH
rain 1hr
in
rain 24hr
in
rain mn
in
humidity
%
barometer
mb
20260506175806 60 339 2.0 6.0 0.00 1.07 0.50 56 1013.2
20260506174806 60 345 3.0 8.0 0.00 1.07 0.50 57 1013.5
20260506133804 49 23 3.0 6.0 0.00 1.07 0.50 83 1012.6
20260506132804 48 13 2.0 6.0 0.00 1.07 0.50 83 1012.5
20260506131804 48 345 3.0 5.0 0.00 1.07 0.50 84 1012.1
20260506130804 48 298 1.0 4.0 0.00 1.07 0.50 84 1012.1
20260506125803 48 314 3.0 3.0 0.00 1.07 0.50 86 1012.2
20260506124803 48 84 0.0 4.0 0.00 1.07 0.50 86 1011.9
20260506123803 47 23 2.0 4.0 0.00 1.07 0.50 87 1011.8
20260506122803 46 40 0.0 3.0 0.00 1.07 0.50 88 1011.7
20260506121803 46 67 0.0 3.0 0.00 1.07 0.50 89 1011.5
20260506050821 49 324 2.0 8.0 0.22 0.91 0.25 95 1007.5
20260506004759 60 221 0.0 0.0 0.06 0.35 0.36 94 1007.2
20260505230818 61 161 0.0 4.0 0.02 0.27 0.27 93 1006.7
20260505225758 61 187 3.0 4.0 0.01 0.26 0.26 93 1006.7
20260505224758 61 241 4.0 6.0 0.01 0.26 0.26 93 1007.0
20260505223758 61 206 0.0 9.0 0.03 0.26 0.26 93 1007.1
20260505222758 61 209 4.0 5.0 0.03 0.26 0.26 93 1007.2
20260505221758 61 210 1.0 10.0 0.03 0.26 0.26 93 1007.2
20260505220758 61 207 3.0 8.0 0.03 0.25 0.25 93 1007.3
20260505215758 61 200 2.0 5.0 0.03 0.25 0.25 93 1007.4
20260505214758 61 217 3.0 9.0 0.03 0.25 0.25 93 1007.4
20260505213758 61 188 3.0 9.0 0.02 0.23 0.23 92 1007.3
20260505212757 61 208 2.0 10.0 0.02 0.23 0.23 92 1007.4
20260505211758 61 215 4.0 8.0 0.02 0.23 0.23 92 1007.4